ROCK (60474 NORAD) Tracking and Keplerian Element Data

This shows tracking and keplerian element data for the satellite.

Feedback or suggestion? Click here.




ElementValue
Catalog60474
NameROCK
Epoch Orbit864
Epoch Day286.78174738
Epoch Year2024
RAAN1.4264
Inclination97.4392
Eccentricity0.0001111
Argument of Perigee247.734
Mean Anonmoly112.3777
Mean Motion15.19291989
Decay Rate0.00020559
L11 60474U 24149G 24286.78174738 .00020559 00000+0 97552-3 0 9999
L22 60474 97.4392 1.4264 0001111 247.7340 112.3777 15.19291989 8645



Live tracking and technical data element details for ROCK (NORAD 60474). ROCK can be tracked NOW for your location showing map with azimuth and elevation plus other details from your city location.







IsCatalogInMostPopularTable: catalog: 60474, numindb: 5
Update: records affected: 1



GetName: 60474 ROCK

Hit Count: updated at: Wed, 04 Dec 2024 18:28:46 GMT